FDX1698 TNCA-TNCB

Flight info

Callsign FDX1698
Flight time 0h 36m
Altitude 11000
Route ADRIV1F ADRIV A574 PJG DCT IMOMA
Aircraft C408/M-SDFGRY/S

Departure

Time 2026-05-08 00:10
Airport Queen Beatrix International Airport (TNCA)

Arrival

Time 2026-05-08 00:47
Airport Flamingo International Airport (TNCB)
Time Latitude Longitude Altitude Speed Heading
2026-05-08 00:09 12.50553 -70.02690 11 ft 9 kts 227°
2026-05-08 00:09 12.50504 -70.02718 11 ft 10 kts 196°
2026-05-08 00:09 12.50423 -70.02701 11 ft 11 kts 118°
2026-05-08 00:09 12.50378 -70.02524 13 ft 52 kts 104°
2026-05-08 00:10 12.50247 -70.01998 128 ft 92 kts 104°
2026-05-08 00:10 12.50076 -70.01320 538 ft 100 kts 102°
2026-05-08 00:10 12.49914 -70.00627 986 ft 103 kts 104°
2026-05-08 00:10 12.49740 -69.99886 1358 ft 113 kts 100°
2026-05-08 00:11 12.49621 -69.99350 1570 ft 120 kts 102°
2026-05-08 00:11 12.49419 -69.98507 1974 ft 121 kts 102°
2026-05-08 00:11 12.49222 -69.97673 2458 ft 119 kts 104°
2026-05-08 00:11 12.49025 -69.96847 2870 ft 122 kts 103°
2026-05-08 00:12 12.48821 -69.95989 3211 ft 128 kts 102°
2026-05-08 00:12 12.48604 -69.95077 3493 ft 132 kts 101°
2026-05-08 00:12 12.48386 -69.94171 3891 ft 131 kts 102°
2026-05-08 00:12 12.48169 -69.93250 4257 ft 134 kts 103°
2026-05-08 00:13 12.47947 -69.92327 4694 ft 133 kts 101°
2026-05-08 00:13 12.47724 -69.91392 5053 ft 137 kts 102°
2026-05-08 00:13 12.47502 -69.90463 5467 ft 134 kts 102°
2026-05-08 00:13 12.47277 -69.89522 5830 ft 138 kts 103°
2026-05-08 00:14 12.47047 -69.88564 6229 ft 137 kts 103°
2026-05-08 00:14 12.46817 -69.87600 6569 ft 141 kts 103°
2026-05-08 00:14 12.46581 -69.86610 6879 ft 145 kts 104°
2026-05-08 00:14 12.46348 -69.85636 7306 ft 140 kts 104°
2026-05-08 00:15 12.46113 -69.84652 7639 ft 142 kts 104°
2026-05-08 00:15 12.45885 -69.83698 8046 ft 139 kts 103°
2026-05-08 00:15 12.45649 -69.82710 8317 ft 147 kts 103°
2026-05-08 00:15 12.45386 -69.81698 8672 ft 147 kts 105°
2026-05-08 00:16 12.45100 -69.80667 8960 ft 153 kts 104°
2026-05-08 00:16 12.44815 -69.79625 9330 ft 152 kts 104°
2026-05-08 00:16 12.44531 -69.78587 9694 ft 154 kts 104°
2026-05-08 00:16 12.44240 -69.77532 10036 ft 154 kts 104°
2026-05-08 00:17 12.43951 -69.76485 10374 ft 152 kts 104°
2026-05-08 00:17 12.43660 -69.75425 10658 ft 156 kts 103°
2026-05-08 00:17 12.43368 -69.74370 10991 ft 156 kts 103°
2026-05-08 00:17 12.43056 -69.73232 11013 ft 175 kts 104°
2026-05-08 00:18 12.42714 -69.71996 11020 ft 185 kts 104°
2026-05-08 00:18 12.42356 -69.70703 11021 ft 192 kts 103°
2026-05-08 00:18 12.41991 -69.69380 11019 ft 194 kts 104°
2026-05-08 00:18 12.41621 -69.68040 11019 ft 197 kts 103°
2026-05-08 00:19 12.41249 -69.66692 11017 ft 198 kts 104°
2026-05-08 00:19 12.40873 -69.65329 11016 ft 200 kts 104°
2026-05-08 00:19 12.40495 -69.63963 11016 ft 199 kts 104°
2026-05-08 00:19 12.40123 -69.62615 11020 ft 199 kts 103°
2026-05-08 00:20 12.39749 -69.61259 11016 ft 198 kts 104°
2026-05-08 00:20 12.39355 -69.59909 11016 ft 199 kts 107°
2026-05-08 00:20 12.38895 -69.58571 11017 ft 200 kts 107°
2026-05-08 00:20 12.38443 -69.57221 11012 ft 201 kts 107°
2026-05-08 00:21 12.37990 -69.55870 11013 ft 200 kts 107°
2026-05-08 00:21 12.37536 -69.54523 11013 ft 200 kts 107°
2026-05-08 00:21 12.37081 -69.53176 11020 ft 199 kts 107°
2026-05-08 00:21 12.36631 -69.51837 11021 ft 200 kts 107°
2026-05-08 00:22 12.36177 -69.50492 11019 ft 200 kts 107°
2026-05-08 00:22 12.35722 -69.49140 11018 ft 202 kts 108°
2026-05-08 00:22 12.35264 -69.47783 11023 ft 201 kts 107°
2026-05-08 00:22 12.34813 -69.46447 11020 ft 201 kts 107°
2026-05-08 00:23 12.34359 -69.45101 11021 ft 199 kts 107°
2026-05-08 00:23 12.33907 -69.43760 11018 ft 200 kts 107°
2026-05-08 00:23 12.33452 -69.42412 11022 ft 200 kts 107°
2026-05-08 00:23 12.32997 -69.41063 11015 ft 201 kts 108°
2026-05-08 00:24 12.32539 -69.39705 11018 ft 202 kts 107°
2026-05-08 00:24 12.32081 -69.38351 11022 ft 201 kts 107°
2026-05-08 00:24 12.31624 -69.37000 11029 ft 200 kts 107°
2026-05-08 00:24 12.31175 -69.35663 11024 ft 198 kts 107°
2026-05-08 00:25 12.30731 -69.34320 11027 ft 199 kts 107°
2026-05-08 00:25 12.30288 -69.32980 11017 ft 200 kts 107°
2026-05-08 00:25 12.29841 -69.31636 11017 ft 200 kts 107°
2026-05-08 00:25 12.29395 -69.30294 11019 ft 199 kts 107°
2026-05-08 00:26 12.28950 -69.28954 11020 ft 199 kts 107°
2026-05-08 00:26 12.28507 -69.27623 11024 ft 197 kts 106°
2026-05-08 00:26 12.28065 -69.26291 11027 ft 198 kts 107°
2026-05-08 00:26 12.27626 -69.24972 11027 ft 198 kts 107°
2026-05-08 00:27 12.27179 -69.23628 11022 ft 201 kts 107°
2026-05-08 00:27 12.26731 -69.22281 11026 ft 199 kts 107°
2026-05-08 00:27 12.26285 -69.20938 11027 ft 200 kts 107°
2026-05-08 00:27 12.25839 -69.19599 11028 ft 198 kts 107°
2026-05-08 00:28 12.25394 -69.18266 11026 ft 198 kts 108°
2026-05-08 00:28 12.24953 -69.16932 11028 ft 198 kts 108°
2026-05-08 00:28 12.24509 -69.15597 11027 ft 199 kts 108°
2026-05-08 00:28 12.24059 -69.14252 11029 ft 199 kts 108°
2026-05-08 00:29 12.23612 -69.12909 11029 ft 199 kts 108°
2026-05-08 00:29 12.23168 -69.11576 11037 ft 196 kts 107°
2026-05-08 00:29 12.22728 -69.10256 11028 ft 196 kts 108°
2026-05-08 00:29 12.22286 -69.08930 11029 ft 197 kts 107°
2026-05-08 00:30 12.21849 -69.07618 11031 ft 199 kts 108°
2026-05-08 00:30 12.21404 -69.06280 11028 ft 199 kts 108°
2026-05-08 00:30 12.20958 -69.04945 11030 ft 198 kts 108°
2026-05-08 00:30 12.20514 -69.03610 11031 ft 198 kts 107°
2026-05-08 00:31 12.20072 -69.02285 11038 ft 196 kts 108°
2026-05-08 00:31 12.19677 -69.00944 11027 ft 197 kts 99°
2026-05-08 00:31 12.19533 -68.99553 11025 ft 198 kts 96°
2026-05-08 00:31 12.19375 -68.98147 11027 ft 199 kts 96°
2026-05-08 00:32 12.19216 -68.96740 11030 ft 199 kts 96°
2026-05-08 00:32 12.19061 -68.95337 11031 ft 198 kts 96°
2026-05-08 00:32 12.18908 -68.93940 11030 ft 197 kts 96°
2026-05-08 00:32 12.18756 -68.92563 11029 ft 198 kts 96°
2026-05-08 00:33 12.18601 -68.91159 11029 ft 198 kts 96°
2026-05-08 00:33 12.18446 -68.89762 11029 ft 198 kts 96°
2026-05-08 00:33 12.18293 -68.88375 11031 ft 196 kts 96°
2026-05-08 00:33 12.18141 -68.86987 11030 ft 197 kts 96°
2026-05-08 00:34 12.17987 -68.85596 11029 ft 198 kts 96°
2026-05-08 00:34 12.17832 -68.84203 11036 ft 197 kts 97°
2026-05-08 00:34 12.17679 -68.82815 11032 ft 196 kts 97°
2026-05-08 00:34 12.17527 -68.81440 11036 ft 193 kts 96°
2026-05-08 00:35 12.17376 -68.80071 11031 ft 194 kts 97°
2026-05-08 00:35 12.17222 -68.78696 11026 ft 196 kts 96°
2026-05-08 00:35 12.17068 -68.77307 11031 ft 196 kts 96°
2026-05-08 00:35 12.16916 -68.75926 11030 ft 195 kts 96°
2026-05-08 00:36 12.16762 -68.74551 11031 ft 194 kts 97°
2026-05-08 00:36 12.16610 -68.73177 11029 ft 195 kts 97°
2026-05-08 00:36 12.16459 -68.71816 11025 ft 196 kts 96°
2026-05-08 00:36 12.16304 -68.70423 11030 ft 197 kts 96°
2026-05-08 00:37 12.16153 -68.69064 10682 ft 175 kts 97°
2026-05-08 00:37 12.16027 -68.67923 10201 ft 155 kts 98°
2026-05-08 00:37 12.15898 -68.66774 9718 ft 170 kts 99°
2026-05-08 00:38 12.15634 -68.64398 8717 ft 165 kts 98°
2026-05-08 00:38 12.15507 -68.63245 8224 ft 163 kts 98°
2026-05-08 00:38 12.15379 -68.62107 7745 ft 159 kts 99°
2026-05-08 00:38 12.15254 -68.60992 7272 ft 159 kts 98°
2026-05-08 00:39 12.15129 -68.59871 6807 ft 158 kts 98°
2026-05-08 00:39 12.15003 -68.58743 6344 ft 161 kts 97°
2026-05-08 00:39 12.14877 -68.57614 5861 ft 157 kts 97°
2026-05-08 00:39 12.14754 -68.56509 5381 ft 155 kts 98°
2026-05-08 00:40 12.14634 -68.55435 4913 ft 153 kts 97°
2026-05-08 00:40 12.14513 -68.54354 4433 ft 153 kts 97°
2026-05-08 00:40 12.14392 -68.53269 3960 ft 159 kts 98°
2026-05-08 00:40 12.14263 -68.52109 3534 ft 167 kts 98°
2026-05-08 00:41 12.14133 -68.50957 3253 ft 159 kts 97°
2026-05-08 00:41 12.14010 -68.49848 3015 ft 147 kts 97°
2026-05-08 00:41 12.13910 -68.48819 2743 ft 151 kts 95°
2026-05-08 00:41 12.13833 -68.47736 2643 ft 154 kts 95°
2026-05-08 00:42 12.13752 -68.46632 2629 ft 156 kts 95°
2026-05-08 00:42 12.13670 -68.45517 2593 ft 160 kts 95°
2026-05-08 00:42 12.13608 -68.44372 2514 ft 162 kts 93°
2026-05-08 00:42 12.13565 -68.43244 2456 ft 155 kts 92°
2026-05-08 00:43 12.13519 -68.42159 2482 ft 152 kts 93°
2026-05-08 00:43 12.13494 -68.41091 2475 ft 153 kts 91°
2026-05-08 00:43 12.13486 -68.39983 2355 ft 157 kts 90°
2026-05-08 00:43 12.13462 -68.38883 2190 ft 154 kts 91°
2026-05-08 00:44 12.13424 -68.37787 1926 ft 155 kts 92°
2026-05-08 00:44 12.13381 -68.36699 1734 ft 153 kts 94°
2026-05-08 00:44 12.13325 -68.35610 1561 ft 153 kts 94°
2026-05-08 00:44 12.13293 -68.34524 1317 ft 152 kts 91°
2026-05-08 00:45 12.13265 -68.33504 1099 ft 138 kts 91°
2026-05-08 00:45 12.13240 -68.32554 944 ft 130 kts 90°
2026-05-08 00:45 12.13222 -68.31643 769 ft 126 kts 90°
2026-05-08 00:45 12.13201 -68.30810 555 ft 112 kts 89°
2026-05-08 00:46 12.13185 -68.30073 447 ft 98 kts 91°
2026-05-08 00:46 12.13173 -68.29397 330 ft 93 kts 94°
2026-05-08 00:46 12.13144 -68.28757 212 ft 88 kts 91°
2026-05-08 00:46 12.13123 -68.28132 70 ft 89 kts 90°
2026-05-08 00:47 12.13104 -68.27535 19 ft 73 kts 90°
2026-05-08 00:47 12.13092 -68.27172 19 ft 24 kts 100°
2026-05-08 00:47 12.13097 -68.27076 18 ft 8 kts 346°
2026-05-08 00:47 12.13103 -68.27192 20 ft 31 kts 269°
2026-05-08 00:48 12.13106 -68.27433 18 ft 28 kts 270°
2026-05-08 00:48 12.13114 -68.27584 22 ft 10 kts 303°
2026-05-08 00:48 12.13193 -68.27603 19 ft 13 kts
2026-05-08 00:48 12.13263 -68.27599 20 ft 7 kts
2026-05-08 00:49 12.13271 -68.27624 20 ft 5 kts 201°
2026-05-08 00:49 12.13259 -68.27625 21 ft 0 kts 180°